FW6766 Weather Reports


Display with metric or nautical units.
time (UTC)temp
F
wind
direction
speed
MPH
gust
MPH
rain 1hr
in
rain 24hr
in
rain mn
in
humidity
%
barometer
mb
20260831023517 76 0.0 0.0 0.00 0.00 0.00 84 1021.8
20260831022518 76 0.0 0.0 0.00 0.00 0.00 83 1021.9
20260831021517 76 0.0 1.0 0.00 0.00 0.00 83 1021.9
20260831020517 76 0.0 0.0 0.00 0.00 0.00 82 1021.5
20260831015517 76 0.0 0.0 0.00 0.00 0.00 82 1021.5
20260831014517 76 0.0 0.0 0.00 0.00 0.00 82 1021.4
20260831013517 77 0.0 0.0 0.00 0.00 0.00 81 1021.3
20260831012517 77 0.0 0.0 0.00 0.00 0.00 80 1021.3
20260831011538 77 0.0 1.0 0.00 0.00 0.00 80 1021.1
20260831010517 77 0.0 0.0 0.00 0.00 0.00 80 1020.9
20260831005517 77 0.0 2.0 0.00 0.00 0.00 79 1021.0
20260831004516 77 0.0 0.0 0.00 0.00 0.00 79 1020.8
20260831003517 78 0.0 0.0 0.00 0.00 0.00 78 1020.8
20260831002517 78 0.0 0.0 0.00 0.00 0.00 77 1020.7
20260831001557 79 0.0 0.0 0.00 0.00 0.00 76 1020.6
20260831000517 79 0.0 0.0 0.00 0.00 0.00 74 1020.6
20260830235537 80 0.0 0.0 0.00 0.00 0.00 74 1020.7
20260830234517 80 0.0 2.0 0.00 0.00 0.00 72 1020.6
20260830233516 81 0.0 1.0 0.00 0.00 0.00 69 1020.5
20260830232516 81 0.0 1.0 0.00 0.00 0.00 68 1020.5
20260830231516 82 0.0 1.0 0.00 0.00 0.00 69 1020.6
20260830230516 83 0.0 0.0 0.00 0.00 0.00 70 1020.7
20260830225517 83 0.0 1.0 0.00 0.00 0.00 68 1020.7
20260830224516 84 0.0 0.0 0.00 0.00 0.00 67 1020.7
20260830223516 85 0.0 1.0 0.00 0.00 0.00 67 1020.6
20260830222516 86 0.0 2.0 0.00 0.00 0.00 63 1020.7
20260830221516 87 0.0 0.0 0.00 0.00 0.00 64 1020.8
20260830220516 87 0.0 0.0 0.00 0.00 0.00 61 1020.9
20260830215516 87 0.0 2.0 0.00 0.00 0.00 60 1020.9
20260830214517 88 0.0 1.0 0.00 0.00 0.00 58 1020.9
20260830213516 88 0.0 2.0 0.00 0.00 0.00 61 1020.8
20260830212516 88 0.0 1.0 0.00 0.00 0.00 59 1020.8
20260830211516 88 68 1.0 3.0 0.00 0.00 0.00 56 1021.0
20260830210516 89 0.0 3.0 0.00 0.00 0.00 56 1021.1
20260830205536 89 203 1.0 7.0 0.00 0.00 0.00 59 1021.2
20260830204516 89 180 1.0 5.0 0.00 0.00 0.00 58 1021.2
20260830203517 89 45 1.0 4.0 0.00 0.00 0.00 54 1021.1
20260830202516 89 0.0 1.0 0.00 0.00 0.00 58 1021.2
20260830201516 90 0.0 2.0 0.00 0.00 0.00 58 1021.3
20260830200516 90 0.0 2.0 0.00 0.00 0.00 57 1021.4
20260830195516 90 225 1.0 5.0 0.00 0.00 0.00 59 1021.4
20260830194516 90 180 2.0 6.0 0.00 0.00 0.00 56 1021.6
20260830193517 88 0.0 3.0 0.00 0.00 0.00 59 1021.6
20260830192516 88 0.0 2.0 0.00 0.00 0.00 59 1021.9
20260830191515 90 0.0 0.0 0.00 0.00 0.00 58 1021.8
20260830190516 89 0.0 2.0 0.00 0.00 0.00 59 1022.1
20260830185516 87 0.0 0.0 0.00 0.00 0.00 63 1022.1
20260830184515 86 0.0 1.0 0.00 0.00 0.00 65 1022.1
20260830183516 87 0.0 1.0 0.00 0.00 0.00 64 1022.4
20260830182515 87 0.0 2.0 0.00 0.00 0.00 62 1022.7
20260830181516 87 23 1.0 3.0 0.00 0.00 0.00 63 1022.8
20260830180536 87 113 1.0 2.0 0.00 0.00 0.00 65 1022.8
20260830175515 87 0.0 2.0 0.00 0.00 0.00 64 1023.1
20260830174517 85 0.0 1.0 0.00 0.00 0.00 68 1023.2
20260830173518 86 0.0 3.0 0.00 0.00 0.00 67 1023.5
20260830172517 85 0.0 0.0 0.00 0.00 0.00 68 1023.7
20260830171538 83 0.0 0.0 0.00 0.00 0.00 72 1023.8
20260830170518 83 0.0 0.0 0.00 0.00 0.00 72 1024.0
20260830165517 82 0.0 3.0 0.00 0.00 0.00 75 1023.9
20260830164518 83 0.0 1.0 0.00 0.00 0.00 72 1024.2
20260830163517 83 0.0 2.0 0.00 0.00 0.00 72 1024.2
20260830162517 84 0.0 2.0 0.00 0.00 0.00 70 1024.3
20260830161517 84 0.0 3.0 0.00 0.00 0.00 72 1024.4
20260830160538 82 0.0 2.0 0.00 0.00 0.00 75 1024.3
20260830155517 82 0 1.0 3.0 0.00 0.00 0.00 76 1024.5
20260830154517 81 0.0 3.0 0.00 0.00 0.00 78 1024.5
20260830153537 80 0.0 2.0 0.00 0.00 0.00 81 1024.4
20260830152517 80 0.0 1.0 0.00 0.00 0.00 79 1024.5
20260830151517 79 23 1.0 5.0 0.00 0.00 0.00 80 1024.5
20260830150517 78 0.0 0.0 0.00 0.00 0.00 84 1024.5
20260830145517 78 0.0 2.0 0.00 0.00 0.00 85 1024.4
20260830144558 77 0.0 1.0 0.00 0.00 0.00 86 1024.4
20260830143517 77 0.0 2.0 0.00 0.00 0.00 88 1024.3
20260830142517 76 0.0 2.0 0.00 0.00 0.00 88 1024.3
20260830141517 76 0.0 0.0 0.00 0.00 0.00 89 1024.3
20260830140517 76 0.0 0.0 0.00 0.00 0.00 91 1024.3
20260830135517 75 0.0 0.0 0.00 0.00 0.00 92 1024.4
20260830134517 74 0.0 1.0 0.00 0.00 0.00 93 1024.3
20260830133517 74 0.0 0.0 0.00 0.00 0.00 93 1024.4
20260830132517 74 0.0 0.0 0.00 0.00 0.00 94 1024.4
20260830131517 73 0.0 0.0 0.00 0.00 0.00 95 1024.2
20260830130517 73 0.0 0.0 0.00 0.00 0.00 96 1024.3
20260830125517 72 0.0 0.0 0.00 0.00 0.00 96 1024.2
20260830124516 72 0.0 0.0 0.00 0.00 0.00 96 1024.3
20260830123517 72 0.0 0.0 0.00 0.00 0.00 96 1024.1
20260830122516 71 0.0 0.0 0.00 0.00 0.00 96 1024.1
20260830121517 71 0.0 0.0 0.00 0.00 0.00 96 1024.0
20260830120517 70 0.0 0.0 0.00 0.00 0.00 96 1023.7
20260830115516 70 0.0 0.0 0.00 0.00 0.00 95 1023.5
20260830114517 70 0.0 0.0 0.00 0.00 0.00 95 1023.4
20260830113516 70 0.0 0.0 0.00 0.00 0.00 95 1023.2
20260830112516 70 0.0 0.0 0.00 0.00 0.00 95 1023.0
20260830111516 70 0.0 0.0 0.00 0.00 0.00 94 1022.8
20260830110516 70 0.0 0.0 0.00 0.00 0.00 94 1022.6
20260830105516 70 0.0 0.0 0.00 0.00 0.00 94 1022.5
20260830104516 70 0.0 0.0 0.00 0.00 0.00 94 1022.3
20260830103516 70 0.0 0.0 0.00 0.00 0.00 95 1022.6
20260830102557 70 0.0 0.0 0.00 0.00 0.00 94 1022.7
20260830101516 71 0.0 0.0 0.00 0.00 0.00 94 1022.6
20260830100536 71 0.0 0.0 0.00 0.00 0.00 94 1022.5
20260830095516 71 0.0 0.0 0.00 0.00 0.00 94 1022.5
20260830094516 71 0.0 0.0 0.00 0.00 0.00 94 1022.4
20260830093516 71 0.0 0.0 0.00 0.00 0.00 94 1022.5
20260830092517 71 0.0 0.0 0.00 0.00 0.00 94 1022.5
20260830091516 71 0.0 0.0 0.00 0.00 0.00 94 1022.5
20260830090516 71 0.0 0.0 0.00 0.00 0.00 94 1022.6
20260830085516 71 0.0 0.0 0.00 0.00 0.00 93 1022.5
20260830084516 71 0.0 0.0 0.00 0.00 0.00 94 1022.6
20260830083516 71 0.0 0.0 0.00 0.00 0.00 94 1022.5
20260830082516 71 0.0 0.0 0.00 0.00 0.00 94 1022.3
20260830081516 71 0.0 0.0 0.00 0.00 0.00 93 1022.2
20260830080516 71 0.0 0.0 0.00 0.00 0.00 93 1022.2
20260830075516 71 0.0 0.0 0.00 0.00 0.00 92 1022.0
20260830074516 71 0.0 0.0 0.00 0.00 0.00 93 1022.0
20260830073515 72 0.0 0.0 0.00 0.00 0.00 92 1022.0
20260830072516 72 0.0 0.0 0.00 0.00 0.00 92 1022.1
20260830071536 72 0.0 0.0 0.00 0.00 0.00 91 1022.2
20260830070516 72 0.0 0.0 0.00 0.00 0.00 91 1022.3
20260830065515 72 0.0 0.0 0.00 0.00 0.00 91 1022.5
20260830064515 73 0.0 0.0 0.00 0.00 0.00 90 1022.5
20260830063515 73 0.0 0.0 0.00 0.00 0.00 90 1022.5
20260830062515 73 0.0 0.0 0.00 0.00 0.00 90 1022.5
20260830061516 73 0.0 0.0 0.00 0.00 0.00 89 1022.7
20260830060535 73 0.0 0.0 0.00 0.00 0.00 89 1023.0
20260830055516 74 0.0 0.0 0.00 0.00 0.00 88 1023.1
20260830054515 74 0.0 0.0 0.00 0.00 0.00 88 1023.0
20260830053517 74 0.0 0.0 0.00 0.00 0.00 88 1023.0
20260830052537 74 0.0 0.0 0.00 0.00 0.00 87 1023.2
20260830051517 75 0.0 0.0 0.00 0.00 0.00 87 1023.1
20260830050517 75 0.0 0.0 0.00 0.00 0.00 87 1023.1
20260830045517 75 0.0 0.0 0.00 0.00 0.00 86 1023.1
20260830044517 75 0.0 2.0 0.00 0.00 0.00 86 1023.1
20260830043538 75 0.0 0.0 0.00 0.00 0.00 86 1023.1
20260830042517 75 0.0 1.0 0.00 0.00 0.00 87 1023.2
20260830041637 75 0.0 1.0 0.00 0.00 0.00 87 1023.2
20260830040517 75 0.0 1.0 0.00 0.00 0.00 87 1022.9
20260830035517 75 0.0 2.0 0.00 0.00 0.00 87 1022.9
20260830034517 75 0.0 0.0 0.00 0.00 0.00 87 1022.9
20260830033518 75 0.0 0.0 0.00 0.00 0.00 87 1023.0
20260830032517 75 0.0 0.0 0.00 0.00 0.00 88 1023.0
20260830031517 75 0.0 1.0 0.00 0.00 0.00 88 1022.9
20260830030517 74 0.0 0.0 0.00 0.00 0.00 89 1022.9
20260830025517 74 0.0 0.0 0.00 0.00 0.00 89 1022.7
20260830024517 74 0.0 0.0 0.00 0.00 0.00 89 1022.7